Regional Weather Roundup
Issued by NWS Memphis, TN

Home | Current Version | Previous Version | Text Only | Print | Product List | Glossary On
Versions: 1 2 3 4 5 6 7 8 9 10 11 12 13 14 15 16 17 18 19 20 21 22 23 24 25 26 27 28 29 30 31 32 33 34 35 36 37 38 39 40 41 42 43 44 45 46 47 48 49 50
000
ASUS44 KMEG 210110
RWRMEG
MEMPHIS CWA HOURLY WEATHER ROUNDUP
NATIONAL WEATHER SERVICE MEMPHIS TN
700 PM CST MON FEB 20 2017

...WEST TENNESSEE...

CITY           SKY/WX    TMP DP  RH WIND       PRES   REMARKS
MEMPHIS INTL   MOCLDY    72  54  53 SE10      29.95F
NWS MEMPHIS      N/A     71 N/A N/A MISG        N/A
JACKSON        PTCLDY    68  52  56 SE3       30.00S
BOLIVAR        CLOUDY    66  52  59 E3        29.98F
UNION CITY     CLEAR     66  46  48 CALM      29.99S
PARIS          CLEAR     63  48  59 SE5       30.03S
HUNTINGDON     CLEAR     64  50  59 SE6       30.01S


...EASTERN ARKANSAS...

CITY           SKY/WX    TMP DP  RH WIND       PRES   REMARKS
JONESBORO      MOCLDY    66  53  63 SE7       29.93F
WEST MEMPHIS   MOCLDY    63  52  67 SE5       29.93F
BATESVILLE     CLOUDY    66  57  72 SW15G24   29.95R
WALNUT RIDGE   MOCLDY    66  54  63 SE12      29.92F
BLYTHEVILLE    MOCLDY    69  53  56 SE7       29.96F
SEARCY         CLOUDY    66  62  87 CALM      29.92S
STUTTGART      CLOUDY    70  55  60 E8        29.90F
PINE BLUFF     LGT RAIN  65  63  93 W8        29.89S
MONTICELLO     MOCLDY    73  60  63 VRB3      29.86F


...NORTH MISSISSIPPI...

CITY           SKY/WX    TMP DP  RH WIND       PRES   REMARKS
TUPELO         CLEAR     67  48  50 E8        29.99F
OXFORD         CLEAR     68  52  56 SE8       29.98F
BATESVILLE     PTCLDY    69  54  60 E3        29.96F
OLIVE BRANCH   MOCLDY   N/A N/A N/A CALM      29.96F
TUNICA         PTCLDY    64  54  68 SE6       29.95S
CORINTH        CLEAR     64  48  55 SE8       29.99F
GREENWOOD      CLOUDY    74  48  39 SE9       29.92F
COLUMBUS       CLOUDY    64  51  61 E10       29.99F


...SOUTHEAST MISSOURI...

CITY           SKY/WX    TMP DP  RH WIND       PRES   REMARKS
KENNETT          N/A     64  57  77 SE5       29.94F
WEST PLAINS    CLOUDY    69  57  65 S8        29.93R
POPLAR BLUFF   MOCLDY    65  55  70 SE7       29.94F
CAPE GIRARDEAU PTCLDY    63  54  72 SE8       29.97F


...NORTHWEST ALABAMA...

CITY           SKY/WX    TMP DP  RH WIND       PRES   REMARKS
MUSCLE SHOALS  CLOUDY    62  48  60 E5        30.06S HAZE


...MIDDLE TENNESSEE...

CITY           SKY/WX    TMP DP  RH WIND       PRES   REMARKS
NASHVILLE      CLOUDY    67  43  41 S3        30.07R
CLARKSVILLE    CLOUDY    62  47  57 SE6       30.04F
COLUMBIA       CLEAR     61  50  67 CALM      30.05S


...WESTERN KENTUCKY...

CITY           SKY/WX    TMP DP  RH WIND       PRES   REMARKS
PADUCAH        PTCLDY    64  50  60 SE8       30.00S
FORT CAMPBELL  CLOUDY    64  49  56 E3        30.04F


...CENTRAL ARKANSAS...

CITY           SKY/WX    TMP DP  RH WIND       PRES   REMARKS
LITTLE ROCK    RAIN      64  64 100 SW6       29.91R FOG


SKY/WX REPORTED AS FAIR MEANS FEW OR NO CLOUDS BELOW
12 THOUSAND FEET.





USA.gov is the U.S. government's official web portal to all federal, state and local government web resources and services.